| time (UTC) | temp F | wind direction | speed knots | gust knots | rain 1hr in | rain 24hr in | rain mn in | humidity % | barometer mb |
| 20260504160419 | 70 | 204 | 10.4 | 11.3 | 0.00 | 0.00 | 0.00 | 39 | 1012.3 |
| 20260504150843 | 67 | 154 | 1.7 | 11.3 | 0.00 | 0.00 | 0.00 | 40 | 1013.0 |
| 20260504150339 | 67 | 202 | 7.0 | 11.3 | 0.00 | 0.00 | 0.00 | 40 | 1013.3 |
| 20260504141309 | 64 | 213 | 8.7 | 13.9 | 0.00 | 0.00 | 0.00 | 39 | 1013.1 |
| 20260504140806 | 65 | 211 | 7.8 | 13.0 | 0.00 | 0.00 | 0.00 | 37 | 1013.3 |
| 20260504140302 | 65 | 205 | 3.5 | 7.8 | 0.00 | 0.00 | 0.00 | 41 | 1013.2 |
| 20260504130730 | 60 | 188 | 5.2 | 5.2 | 0.00 | 0.00 | 0.00 | 45 | 1013.6 |
| 20260504130226 | 60 | 200 | 1.7 | 4.3 | 0.00 | 0.00 | 0.00 | 46 | 1013.5 |
| 20260504120150 | 51 | 195 | 2.6 | 5.2 | 0.00 | 0.00 | 0.00 | 66 | 1013.9 |
| 20260504110618 | 44 | 165 | 0.9 | 1.7 | 0.00 | 0.00 | 0.00 | 83 | 1014.0 |
| 20260504110114 | 44 | 156 | 0.9 | 1.7 | 0.00 | 0.00 | 0.00 | 85 | 1014.1 |
| 20260504100539 | 42 | 76 | 0.9 | 1.7 | 0.00 | 0.00 | 0.00 | 87 | 1014.0 |
| 20260504081933 | 42 | 124 | 1.7 | 2.6 | 0.00 | 0.00 | 0.00 | 86 | 1014.6 |
| 20260504081430 | 42 | 69 | 1.7 | 2.6 | 0.00 | 0.00 | 0.00 | 87 | 1014.5 |
| 20260504080926 | 42 | 71 | 0.0 | 1.7 | 0.00 | 0.00 | 0.00 | 86 | 1014.4 |
| 20260504080423 | 42 | 69 | 0.0 | 1.7 | 0.00 | 0.00 | 0.00 | 85 | 1014.6 |
| 20260504070350 | 41 | 62 | 1.7 | 2.6 | 0.00 | 0.00 | 0.00 | 76 | 1014.6 |
| 20260504050738 | 41 | 148 | 0.9 | 1.7 | 0.00 | 0.00 | 0.00 | 72 | 1015.1 |
| 20260504050235 | 41 | 139 | 0.0 | 1.7 | 0.00 | 0.00 | 0.00 | 72 | 1015.4 |
| 20260504045732 | 41 | 147 | 0.0 | 1.7 | 0.00 | 0.00 | 0.00 | 72 | 1015.2 |
| 20260504045227 | 41 | 154 | 1.7 | 1.7 | 0.00 | 0.00 | 0.00 | 70 | 1015.3 |
| 20260504044725 | 41 | 185 | 0.9 | 1.7 | 0.00 | 0.00 | 0.00 | 70 | 1015.2 |
| 20260504044222 | 41 | 162 | 1.7 | 2.6 | 0.00 | 0.00 | 0.00 | 71 | 1015.2 |
| 20260504043720 | 42 | 174 | 1.7 | 1.7 | 0.00 | 0.00 | 0.00 | 69 | 1015.4 |
| 20260504043216 | 43 | 161 | 1.7 | 2.6 | 0.00 | 0.00 | 0.00 | 67 | 1015.1 |
| 20260504042714 | 42 | 175 | 0.9 | 1.7 | 0.00 | 0.00 | 0.00 | 68 | 1015.1 |
| 20260504042210 | 42 | 181 | 1.7 | 1.7 | 0.00 | 0.00 | 0.00 | 68 | 1015.1 |
| 20260504041706 | 42 | 189 | 1.7 | 2.6 | 0.00 | 0.00 | 0.00 | 68 | 1015.0 |
| 20260504041202 | 42 | 194 | 1.7 | 1.7 | 0.00 | 0.00 | 0.00 | 69 | 1015.0 |
| 20260504040659 | 42 | 179 | 1.7 | 1.7 | 0.00 | 0.00 | 0.00 | 70 | 1015.1 |
| 20260504040156 | 42 | 170 | 0.9 | 1.7 | 0.00 | 0.00 | 0.00 | 71 | 1015.0 |
| 20260504035652 | 41 | 181 | 0.9 | 1.7 | 0.00 | 0.00 | 0.00 | 73 | 1015.1 |
| 20260504035150 | 40 | 176 | 0.9 | 1.7 | 0.00 | 0.00 | 0.00 | 79 | 1015.1 |
| 20260504034647 | 40 | 160 | 0.9 | 1.7 | 0.00 | 0.00 | 0.00 | 79 | 1015.0 |
| 20260504034144 | 41 | 145 | 0.0 | 1.7 | 0.00 | 0.00 | 0.00 | 75 | 1015.0 |
| 20260504033642 | 41 | 141 | 1.7 | 2.6 | 0.00 | 0.00 | 0.00 | 72 | 1015.1 |
| 20260504033139 | 42 | 142 | 1.7 | 1.7 | 0.00 | 0.00 | 0.00 | 70 | 1014.9 |
| 20260504032635 | 43 | 146 | 0.9 | 2.6 | 0.00 | 0.00 | 0.00 | 68 | 1014.7 |
| 20260504032132 | 43 | 148 | 1.7 | 1.7 | 0.00 | 0.00 | 0.00 | 65 | 1014.7 |
| 20260504031630 | 43 | 146 | 0.9 | 1.7 | 0.00 | 0.00 | 0.00 | 64 | 1014.7 |
| 20260504031126 | 42 | 205 | 0.9 | 1.7 | 0.00 | 0.00 | 0.00 | 66 | 1014.7 |
| 20260504030623 | 42 | 146 | 1.7 | 1.7 | 0.00 | 0.00 | 0.00 | 67 | 1014.6 |
| 20260504030120 | 42 | 166 | 0.9 | 0.9 | 0.00 | 0.00 | 0.00 | 70 | 1014.6 |
| 20260504025616 | 42 | 152 | 1.7 | 1.7 | 0.00 | 0.00 | 0.00 | 70 | 1014.8 |
| 20260504025113 | 42 | 158 | 1.7 | 1.7 | 0.00 | 0.00 | 0.00 | 71 | 1014.7 |
| 20260504024611 | 43 | 166 | 0.9 | 1.7 | 0.00 | 0.00 | 0.00 | 70 | 1014.3 |
| 20260504024107 | 44 | 158 | 0.9 | 1.7 | 0.00 | 0.00 | 0.00 | 66 | 1014.4 |
| 20260504023603 | 44 | 238 | 0.9 | 1.7 | 0.00 | 0.00 | 0.00 | 64 | 1014.4 |
| 20260504023059 | 43 | 267 | 2.6 | 2.6 | 0.00 | 0.00 | 0.00 | 66 | 1014.3 |
| 20260504022556 | 44 | 241 | 1.7 | 1.7 | 0.00 | 0.00 | 0.00 | 66 | 1014.4 |
| 20260504022052 | 45 | 169 | 0.9 | 1.7 | 0.00 | 0.00 | 0.00 | 62 | 1014.2 |
| 20260504021550 | 46 | 136 | 2.6 | 2.6 | 0.00 | 0.00 | 0.00 | 59 | 1014.2 |
| 20260504021046 | 45 | 75 | 1.7 | 2.6 | 0.00 | 0.00 | 0.00 | 58 | 1014.4 |
| 20260504020543 | 45 | 343 | 0.0 | 0.0 | 0.00 | 0.00 | 0.00 | 60 | 1014.4 |
| 20260504020040 | 45 | 193 | 1.7 | 1.7 | 0.00 | 0.00 | 0.00 | 60 | 1014.4 |
| 20260504015536 | 46 | 160 | 1.7 | 1.7 | 0.00 | 0.00 | 0.00 | 57 | 1014.2 |
| 20260504015032 | 46 | 73 | 1.7 | 2.6 | 0.00 | 0.00 | 0.00 | 56 | 1014.3 |
| 20260504014528 | 46 | 107 | 1.7 | 1.7 | 0.00 | 0.00 | 0.00 | 56 | 1014.3 |
| 20260504014026 | 47 | 89 | 0.0 | 0.9 | 0.00 | 0.00 | 0.00 | 53 | 1014.2 |
| 20260504013524 | 48 | 235 | 0.9 | 1.7 | 0.00 | 0.00 | 0.00 | 53 | 1014.2 |
| 20260504013020 | 48 | 212 | 0.9 | 1.7 | 0.00 | 0.00 | 0.00 | 54 | 1014.0 |
| 20260504012518 | 48 | 200 | 0.9 | 0.9 | 0.00 | 0.00 | 0.00 | 52 | 1014.3 |
| 20260504012016 | 49 | 189 | 0.0 | 1.7 | 0.00 | 0.00 | 0.00 | 48 | 1014.1 |
| 20260504011512 | 51 | 121 | 1.7 | 2.6 | 0.00 | 0.00 | 0.00 | 44 | 1014.1 |
| 20260504011008 | 52 | 89 | 0.0 | 1.7 | 0.00 | 0.00 | 0.00 | 41 | 1013.9 |
| 20260504010504 | 53 | 147 | 0.0 | 0.0 | 0.00 | 0.00 | 0.00 | 39 | 1013.9 |
| 20260504010000 | 53 | 246 | 0.0 | 1.7 | 0.00 | 0.00 | 0.00 | 39 | 1014.0 |
| 20260504005457 | 53 | 269 | 0.0 | 1.7 | 0.00 | 0.00 | 0.00 | 39 | 1014.0 |
| 20260504004954 | 53 | 229 | 0.9 | 1.7 | 0.00 | 0.00 | 0.00 | 38 | 1014.0 |
| 20260504004452 | 54 | 185 | 0.9 | 0.9 | 0.00 | 0.00 | 0.00 | 38 | 1013.8 |
| 20260504003949 | 55 | 223 | 1.7 | 1.7 | 0.00 | 0.00 | 0.00 | 37 | 1013.8 |
| 20260504003445 | 55 | 247 | 1.7 | 1.7 | 0.00 | 0.00 | 0.00 | 35 | 1013.9 |
| 20260504002942 | 55 | 267 | 0.9 | 1.7 | 0.00 | 0.00 | 0.00 | 36 | 1013.7 |
| 20260504002439 | 56 | 223 | 1.7 | 1.7 | 0.00 | 0.00 | 0.00 | 35 | 1013.6 |
| 20260504001936 | 56 | 256 | 1.7 | 1.7 | 0.00 | 0.00 | 0.00 | 36 | 1013.8 |
| 20260504001433 | 57 | 222 | 1.7 | 1.7 | 0.00 | 0.00 | 0.00 | 34 | 1013.9 |
| 20260504000930 | 57 | 204 | 1.7 | 1.7 | 0.00 | 0.00 | 0.00 | 34 | 1014.0 |
| 20260504000427 | 57 | 209 | 1.7 | 2.6 | 0.00 | 0.00 | 0.00 | 34 | 1013.9 |
| 20260503235924 | 57 | 232 | 1.7 | 1.7 | 0.00 | 0.00 | 0.00 | 34 | 1013.6 |
| 20260503235422 | 57 | 253 | 1.7 | 3.5 | 0.00 | 0.00 | 0.00 | 34 | 1013.8 |
| 20260503234919 | 58 | 272 | 2.6 | 7.8 | 0.00 | 0.00 | 0.00 | 33 | 1013.4 |
| 20260503234417 | 59 | 265 | 2.6 | 5.2 | 0.00 | 0.00 | 0.00 | 33 | 1013.6 |
| 20260503233914 | 61 | 273 | 1.7 | 3.5 | 0.00 | 0.00 | 0.00 | 31 | 1013.6 |
| 20260503233411 | 61 | 186 | 0.0 | 2.6 | 0.00 | 0.00 | 0.00 | 33 | 1013.5 |
| 20260503232907 | 61 | 215 | 0.9 | 3.5 | 0.00 | 0.00 | 0.00 | 30 | 1013.4 |
| 20260503232405 | 61 | 272 | 1.7 | 3.5 | 0.00 | 0.00 | 0.00 | 32 | 1013.3 |
| 20260503231902 | 61 | 247 | 1.7 | 4.3 | 0.00 | 0.00 | 0.00 | 32 | 1013.3 |
| 20260503231359 | 61 | 281 | 2.6 | 4.3 | 0.00 | 0.00 | 0.00 | 30 | 1013.1 |
| 20260503230855 | 62 | 301 | 5.2 | 7.0 | 0.00 | 0.00 | 0.00 | 30 | 1013.2 |
| 20260503230352 | 62 | 304 | 3.5 | 4.3 | 0.00 | 0.00 | 0.00 | 30 | 1013.2 |
| 20260503225850 | 62 | 336 | 5.2 | 5.2 | 0.00 | 0.00 | 0.00 | 30 | 1013.3 |
| 20260503225345 | 62 | 306 | 2.6 | 7.8 | 0.00 | 0.00 | 0.00 | 29 | 1013.2 |
| 20260503224842 | 63 | 294 | 4.3 | 5.2 | 0.00 | 0.00 | 0.00 | 29 | 1013.1 |
| 20260503224339 | 63 | 291 | 1.7 | 5.2 | 0.00 | 0.00 | 0.00 | 30 | 1013.1 |
| 20260503223837 | 63 | 276 | 1.7 | 10.4 | 0.00 | 0.00 | 0.00 | 28 | 1013.0 |
| 20260503223335 | 63 | 298 | 1.7 | 7.0 | 0.00 | 0.00 | 0.00 | 29 | 1013.2 |
| 20260503222830 | 63 | 255 | 3.5 | 8.7 | 0.00 | 0.00 | 0.00 | 30 | 1013.3 |
| 20260503222329 | 64 | 334 | 0.9 | 6.1 | 0.00 | 0.00 | 0.00 | 28 | 1013.3 |
| 20260503221826 | 63 | 51 | 0.0 | 5.2 | 0.00 | 0.00 | 0.00 | 30 | 1013.3 |
| 20260503221325 | 63 | 278 | 5.2 | 7.8 | 0.00 | 0.00 | 0.00 | 30 | 1013.3 |
| 20260503220820 | 63 | 272 | 5.2 | 8.7 | 0.00 | 0.00 | 0.00 | 31 | 1013.2 |
| 20260503220318 | 63 | 290 | 4.3 | 7.0 | 0.00 | 0.00 | 0.00 | 29 | 1013.5 |
| 20260503215814 | 62 | 235 | 4.3 | 7.0 | 0.00 | 0.00 | 0.00 | 32 | 1013.3 |
| 20260503215312 | 63 | 301 | 1.7 | 6.1 | 0.00 | 0.00 | 0.00 | 29 | 1013.3 |
| 20260503214809 | 63 | 347 | 5.2 | 6.1 | 0.00 | 0.00 | 0.00 | 30 | 1013.4 |
| 20260503214306 | 63 | 292 | 2.6 | 7.0 | 0.00 | 0.00 | 0.00 | 28 | 1013.2 |
| 20260503213804 | 63 | 307 | 9.6 | 9.6 | 0.00 | 0.00 | 0.00 | 31 | 1013.4 |
| 20260503213301 | 63 | 316 | 3.5 | 8.7 | 0.00 | 0.00 | 0.00 | 29 | 1013.3 |
| 20260503212758 | 63 | 282 | 4.3 | 10.4 | 0.00 | 0.00 | 0.00 | 31 | 1013.4 |
| 20260503212256 | 63 | 289 | 6.1 | 8.7 | 0.00 | 0.00 | 0.00 | 28 | 1013.5 |
| 20260503211753 | 63 | 228 | 7.8 | 11.3 | 0.00 | 0.00 | 0.00 | 28 | 1013.3 |
| 20260503211249 | 63 | 263 | 5.2 | 7.8 | 0.00 | 0.00 | 0.00 | 30 | 1013.3 |
| 20260503210744 | 63 | 314 | 4.3 | 12.2 | 0.00 | 0.00 | 0.00 | 29 | 1013.3 |
| 20260503210242 | 63 | 317 | 1.7 | 9.6 | 0.00 | 0.00 | 0.00 | 29 | 1013.6 |
| 20260503205742 | 64 | 293 | 7.0 | 7.0 | 0.00 | 0.00 | 0.00 | 29 | 1013.4 |
| 20260503205239 | 63 | 250 | 3.5 | 8.7 | 0.00 | 0.00 | 0.00 | 30 | 1013.4 |
| 20260503204735 | 63 | 314 | 6.1 | 7.8 | 0.00 | 0.00 | 0.00 | 31 | 1013.6 |
| 20260503204233 | 63 | 279 | 7.8 | 13.0 | 0.00 | 0.00 | 0.00 | 31 | 1013.4 |
| 20260503203731 | 63 | 248 | 7.0 | 8.7 | 0.00 | 0.00 | 0.00 | 29 | 1013.6 |
| 20260503203228 | 64 | 294 | 10.4 | 10.4 | 0.00 | 0.00 | 0.00 | 29 | 1013.5 |
| 20260503202725 | 63 | 240 | 2.6 | 5.2 | 0.00 | 0.00 | 0.00 | 28 | 1013.5 |
| 20260503202223 | 62 | 297 | 5.2 | 8.7 | 0.00 | 0.00 | 0.00 | 34 | 1013.5 |
| 20260503201720 | 62 | 276 | 4.3 | 7.8 | 0.00 | 0.00 | 0.00 | 32 | 1013.5 |
| 20260503201218 | 62 | 256 | 6.1 | 8.7 | 0.00 | 0.00 | 0.00 | 29 | 1013.7 |
| 20260503200714 | 62 | 279 | 6.1 | 8.7 | 0.00 | 0.00 | 0.00 | 29 | 1013.9 |
| 20260503200210 | 63 | 260 | 6.1 | 7.0 | 0.00 | 0.00 | 0.00 | 32 | 1014.0 |
| 20260503195707 | 62 | 351 | 4.3 | 7.8 | 0.00 | 0.00 | 0.00 | 29 | 1013.9 |
| 20260503195204 | 63 | 222 | 9.6 | 12.2 | 0.00 | 0.00 | 0.00 | 31 | 1014.0 |
| 20260503194701 | 63 | 324 | 2.6 | 4.3 | 0.00 | 0.00 | 0.00 | 30 | 1014.1 |
| 20260503194156 | 63 | 15 | 4.3 | 5.2 | 0.00 | 0.00 | 0.00 | 32 | 1014.1 |
| 20260503193653 | 63 | 306 | 3.5 | 9.6 | 0.00 | 0.00 | 0.00 | 35 | 1014.3 |
| 20260503193149 | 62 | 335 | 0.0 | 5.2 | 0.00 | 0.00 | 0.00 | 33 | 1014.4 |
| 20260503192645 | 61 | 316 | 1.7 | 7.8 | 0.00 | 0.00 | 0.00 | 35 | 1014.4 |
| 20260503192141 | 61 | 255 | 7.8 | 11.3 | 0.00 | 0.00 | 0.00 | 32 | 1014.6 |
| 20260503191638 | 60 | 239 | 9.6 | 13.9 | 0.00 | 0.00 | 0.00 | 32 | 1014.5 |
| 20260503191135 | 60 | 249 | 6.1 | 10.4 | 0.00 | 0.00 | 0.00 | 31 | 1014.8 |
| 20260503190632 | 61 | 226 | 7.8 | 10.4 | 0.00 | 0.00 | 0.00 | 34 | 1014.7 |
| 20260503190129 | 61 | 281 | 7.8 | 9.6 | 0.00 | 0.00 | 0.00 | 33 | 1014.9 |
| 20260503185625 | 61 | 181 | 0.0 | 3.5 | 0.00 | 0.00 | 0.00 | 30 | 1014.9 |
| 20260503185120 | 61 | 287 | 7.8 | 10.4 | 0.00 | 0.00 | 0.00 | 35 | 1015.0 |
| 20260503184615 | 60 | 341 | 1.7 | 5.2 | 0.00 | 0.00 | 0.00 | 35 | 1015.0 |
| 20260503184112 | 61 | 255 | 5.2 | 11.3 | 0.00 | 0.00 | 0.00 | 32 | 1014.9 |
| 20260503183609 | 59 | 353 | 6.1 | 11.3 | 0.00 | 0.00 | 0.00 | 37 | 1015.1 |
| 20260503183106 | 59 | 310 | 2.6 | 8.7 | 0.00 | 0.00 | 0.00 | 37 | 1014.8 |
| 20260503182605 | 61 | 278 | 8.7 | 11.3 | 0.00 | 0.00 | 0.00 | 35 | 1015.1 |
| 20260503182102 | 59 | 286 | 6.1 | 12.2 | 0.00 | 0.00 | 0.00 | 35 | 1015.0 |
| 20260503181559 | 59 | 246 | 9.6 | 12.2 | 0.00 | 0.00 | 0.00 | 34 | 1015.3 |
| 20260503181055 | 59 | 2 | 4.3 | 7.8 | 0.00 | 0.00 | 0.00 | 32 | 1015.1 |
| 20260503180553 | 59 | 267 | 7.0 | 13.0 | 0.00 | 0.00 | 0.00 | 37 | 1015.1 |
| 20260503180050 | 59 | 325 | 9.6 | 12.2 | 0.00 | 0.00 | 0.00 | 36 | 1015.4 |
| 20260503175547 | 58 | 293 | 4.3 | 13.9 | 0.00 | 0.00 | 0.00 | 41 | 1015.1 |
| 20260503175044 | 57 | 282 | 10.4 | 19.1 | 0.00 | 0.00 | 0.00 | 36 | 1015.3 |
| 20260503174542 | 58 | 285 | 3.5 | 7.8 | 0.00 | 0.00 | 0.00 | 48 | 1015.5 |
| 20260503174038 | 57 | 303 | 7.8 | 13.0 | 0.00 | 0.00 | 0.00 | 41 | 1015.4 |
| 20260503173533 | 57 | 231 | 8.7 | 15.6 | 0.00 | 0.00 | 0.00 | 34 | 1015.5 |
| 20260503173029 | 58 | 289 | 12.2 | 13.0 | 0.00 | 0.00 | 0.00 | 39 | 1015.6 |
| 20260503172527 | 57 | 263 | 9.6 | 11.3 | 0.00 | 0.00 | 0.00 | 39 | 1015.5 |
| 20260503172024 | 57 | 298 | 8.7 | 17.4 | 0.00 | 0.00 | 0.00 | 35 | 1015.6 |
| 20260503171521 | 57 | 318 | 5.2 | 10.4 | 0.00 | 0.00 | 0.00 | 40 | 1015.9 |
| 20260503171018 | 57 | 293 | 5.2 | 13.0 | 0.00 | 0.00 | 0.00 | 39 | 1015.8 |
| 20260503170514 | 55 | 339 | 7.8 | 13.0 | 0.00 | 0.00 | 0.00 | 40 | 1015.6 |